Weather History for KTVL - December, 2010

Change the Weather History Date:

Monday, December 27, 2010

  Actual Average Record
Temperature  
Mean Temperature 29 °F 29 °F  
Max Temperature 41 °F 43 °F 56 °F (2011)
Min Temperature 16 °F 16 °F -12 °F (1988)
Degree Days  
Heating Degree Days 36 36  
Month to date heating degree days 803 948  
Since 1 July heating degree days 2729 3041  
Cooling Degree Days 0 0  
Month to date cooling degree days 0 0  
Year to date cooling degree days 43 31  
Moisture  
Dew Point 20 °F    
Average Humidity 65    
Maximum Humidity 92    
Minimum Humidity 37    
Precipitation  
Precipitation T in - 2.20 in (1931)
Month to date precipitation 5.58  
Year to date precipitation 25.57  
Sea Level Pressure  
Sea Level Pressure 30.26 in    
Wind  
Wind Speed 3 mph (South)    
Max Wind Speed 17 mph    
Max Gust Speed 21 mph    
Visibility 10 miles    
Events      
T = Trace of Precipitation, MM = Missing Value Source: NWS Daily Summary

Daily Weather History Graph

Daily Weather History Graph

Search for Another Location

Airport or City:

Trip Planner

Search our weather history database for the weather conditions in past years. The results will help you decide how hot, cold, wet, or windy it might be!

Date:

Astronomy

Dec. 27, 2010 Rise Set
Actual Time 7:17 AM PST 4:44 PM PST
Civil Twilight 6:47 AM PST 5:14 PM PST
Nautical Twilight 6:14 AM PST 5:48 PM PST
Astronomical Twilight 5:41 AM PST 6:20 PM PST
Moon No Moon Rise 11:13 AM PST (12/27)
Length of Visible Light 10h 27m
Length of Day
9h 27m
Waning Gibbous, 54% of the Moon is Illuminated
Dec 27
Waning Gibbous
Dec 27
Last Quarter
Jan 4
New
Jan 12
First Quarter
Jan 19
Full

Hourly Weather History & Observations

Time (PST) Temp. Windchill Dew Point Humidity Pressure Visibility Wind Dir Wind Speed Gust Speed Precip Events Conditions
12:53 AM 34.0 °F 26.6 °F 26.1 °F 73% 30.24 in 9.0 mi SSW 9.2 mph 19.6 mph 0.00 in   Overcast
1:53 AM 30.9 °F 25.2 °F 25.0 °F 79% 30.25 in 10.0 mi SSW 5.8 mph - N/A   Clear
2:53 AM 30.0 °F 26.5 °F 23.0 °F 75% 30.27 in 10.0 mi Variable 3.5 mph - N/A   Clear
3:53 AM 25.0 °F 20.7 °F 21.9 °F 88% 30.28 in 10.0 mi SSW 3.5 mph - N/A   Clear
4:53 AM 21.9 °F 17.2 °F 18.0 °F 85% 30.29 in 10.0 mi South 3.5 mph - N/A   Clear
5:53 AM 19.9 °F 13.4 °F 17.1 °F 89% 30.30 in 10.0 mi South 4.6 mph - N/A   Clear
6:53 AM 18.0 °F 12.7 °F 15.1 °F 88% 30.32 in 10.0 mi SSW 3.5 mph - N/A   Clear
7:53 AM 16.0 °F - 12.0 °F 84% 30.33 in 10.0 mi Calm Calm - N/A   Clear
8:53 AM 21.0 °F 16.2 °F 17.1 °F 85% 30.32 in 10.0 mi SSW 3.5 mph - N/A   Clear
9:53 AM 28.0 °F - 19.0 °F 69% 30.30 in 10.0 mi Calm Calm - N/A   Clear
10:53 AM 35.1 °F - 15.1 °F 44% 30.26 in 10.0 mi Calm Calm - N/A   Clear
11:53 AM 37.9 °F - 14.0 °F 38% 30.23 in 10.0 mi Calm Calm - N/A   Clear
12:53 PM 39.0 °F 34.8 °F 18.0 °F 43% 30.19 in 10.0 mi NNE 5.8 mph - N/A   Clear
1:53 PM 37.9 °F 32.7 °F 21.9 °F 53% 30.19 in 10.0 mi NNE 6.9 mph - N/A   Clear
2:53 PM 37.9 °F 34.4 °F 21.0 °F 51% 30.18 in 10.0 mi NNE 4.6 mph - N/A   Clear
3:53 PM 34.0 °F - 25.0 °F 70% 30.22 in 10.0 mi Calm Calm - N/A   Clear
4:53 PM 30.0 °F - 24.1 °F 79% 30.26 in 7.0 mi Calm Calm - N/A   Clear
5:53 PM 28.9 °F - 23.0 °F 78% 30.26 in 10.0 mi Calm Calm - N/A   Clear
6:53 PM 26.1 °F - 21.9 °F 84% 30.28 in 10.0 mi Calm Calm - N/A   Clear
7:53 PM 25.0 °F 20.7 °F 19.9 °F 81% 30.30 in 10.0 mi South 3.5 mph - N/A   Clear
8:53 PM 25.0 °F - 19.9 °F 81% 30.28 in 10.0 mi Calm Calm - N/A   Partly Cloudy
9:53 PM 26.1 °F - 21.0 °F 81% 30.23 in 10.0 mi Calm Calm - N/A   Clear
10:53 PM 25.0 °F - 19.9 °F 81% 30.21 in 10.0 mi Calm Calm - N/A   Clear
11:53 PM 34.0 °F 26.6 °F 15.1 °F 46% 30.15 in 10.0 mi SSW 9.2 mph - N/A   Scattered Clouds